{"data":{"norad_id":69970,"epoch":"2026-09-19T16:48:11.821248Z","epoch_age_seconds":86894,"freshness":"FRESH","line1":"1 69970U 26157AD  26262.70013682  .00012475  00000+0  37961-3 0  9994","line2":"2 69970  53.1608 337.1970 0001367  89.8995 270.2165 15.34410946 11250","mean_motion":15.34410946,"eccentricity":0.0001367,"inclination_deg":53.1608,"raan_deg":337.197,"arg_perigee_deg":89.8995,"mean_anomaly_deg":270.2165,"bstar":0.00037961,"rev_number":1125,"period_min":93.847088601257,"perigee_km":461.73556816826,"apogee_km":463.60584499524,"semimajor_km":6840.8077065817,"source":"CELESTRAK","updated_at":"2026-09-20T09:00:44.304650Z"}}